Location: Sobotiste
(48.7170°N, 17.4000°E)
Time: 23:26:07
(UTC+01:00)

CAS-6 - Visible Passes

Search period start: 14 March 2026 00:00
Search period end: 24 March 2026 00:00
Orbit: 599 x 620 km, 97.8° (Epoch: 14 March)

Date Brightness Start Highest point End Pass type
(mag) Time Alt. Az. Time Alt. Az. Time Alt. Az.
14 Mar ? 20:31:30 13° NNE 20:31:30 13° NNE 20:32:18 10° NNE visible
14 Mar ? 22:08:26 13° NNW 22:08:26 13° NNW 22:08:55 10° NNW visible
15 Mar ? 20:45:31 16° NNE 20:45:31 16° NNE 20:46:34 10° N visible
15 Mar ? 22:22:26 12° NNW 22:22:26 12° NNW 22:22:44 10° NNW visible
16 Mar ? 20:59:30 18° NNE 20:59:30 18° NNE 21:00:45 10° N visible
17 Mar ? 21:13:31 19° N 21:13:31 19° N 21:14:52 10° N visible
18 Mar ? 21:27:30 20° N 21:27:30 20° N 21:28:55 10° N visible
19 Mar ? 20:04:34 11° NE 20:04:34 11° NE 20:05:07 10° NNE visible
19 Mar ? 21:41:31 20° NNW 21:41:31 20° NNW 21:42:54 10° NNW visible
20 Mar ? 20:18:34 14° NE 20:18:34 14° NE 20:19:46 10° NNE visible
20 Mar ? 21:55:30 20° NNW 21:55:30 20° NNW 21:56:50 10° NNW visible
21 Mar ? 20:32:34 17° NNE 20:32:34 17° NNE 20:34:10 10° NNE visible
21 Mar ? 22:09:30 18° NNW 22:09:30 18° NNW 22:10:42 10° NNW visible
22 Mar ? 20:46:34 21° NNE 20:46:34 21° NNE 20:48:25 10° N visible
22 Mar ? 22:23:29 16° NW 22:23:29 16° NW 22:24:30 10° NNW visible
23 Mar ? 21:00:34 24° NNE 21:00:34 24° NNE 21:02:34 10° N visible
23 Mar ? 22:37:29 13° NW 22:37:29 13° NW 22:38:11 10° NW visible
